Change the Weather History Date:

Sunday, September 9, 2012

  Actual Average Record
Temperature  
Mean Temperature 55 °F -  
Max Temperature 64 °F 63 °F 82 °F (2011)
Min Temperature 46 °F 51 °F 41 °F (1999)
Degree Days  
Heating Degree Days 10    
Growing Degree Days 5 (Base 50)    
Moisture  
Dew Point 48 °F    
Average Humidity 73    
Maximum Humidity 100    
Minimum Humidity 56    
Precipitation  
Precipitation 0.00 in - - ()
Sea Level Pressure  
Sea Level Pressure 30.09 in    
Wind  
Wind Speed 9 mph (South)    
Max Wind Speed 18 mph    
Max Gust Speed 23 mph    
Visibility 10 miles    
Events Fog    
Averages and records for this station are not official NWS values.
T = Trace of Precipitation, MM = Missing Value Source: NWS Daily Summary

Daily Weather History Graph

Daily Weather History Graph

Search for Another Location

Airport or City:

Trip Planner

Search our weather history database for the weather conditions in past years. The results will help you decide how hot, cold, wet, or windy it might be!

Date:

Astronomy

Sep. 09, 2012 Rise Set
Actual Time 6:48 AM CDT 7:44 PM CDT
Civil Twilight 6:15 AM CDT 8:16 PM CDT
Nautical Twilight 5:36 AM CDT 8:55 PM CDT
Astronomical Twilight 4:55 AM CDT 9:36 PM CDT
Moon No Moon Rise 3:54 PM CDT (9/9)
Length of Visible Light 14h 01m
Length of Day
12h 56m
Last Quarter, 39% of the Moon is Illuminated
Sep 9
Last Quarter
Sep 15
New
Sep 22
First Quarter
Sep 29
Full
Oct 8
Last Quarter

Hourly Weather History & Observations

Time (CDT) Temp. Windchill Dew Point Humidity Pressure Visibility Wind Dir Wind Speed Gust Speed Precip Events Conditions
12:14 AM 55.4 °F - 48.2 °F 77% 30.10 in 10.0 mi North 11.5 mph - N/A   Clear
12:33 AM 53.6 °F - 46.4 °F 77% 30.10 in 10.0 mi North 11.5 mph 20.7 mph N/A   Clear
12:54 AM 53.6 °F - 48.2 °F 82% 30.11 in 10.0 mi NNW 11.5 mph - N/A   Clear
1:13 AM 53.6 °F - 46.4 °F 77% 30.11 in 10.0 mi North 11.5 mph - N/A   Clear
1:33 AM 53.6 °F - 46.4 °F 77% 30.11 in 10.0 mi North 11.5 mph - N/A   Clear
1:53 AM 53.6 °F - 46.4 °F 77% 30.11 in 10.0 mi North 10.4 mph - N/A   Clear
2:13 AM 53.6 °F - 46.4 °F 77% 30.12 in 10.0 mi North 11.5 mph - N/A   Clear
2:34 AM 51.8 °F - 48.2 °F 88% 30.12 in 10.0 mi WNW 11.5 mph - N/A   Clear
2:53 AM 51.8 °F - 48.2 °F 88% 30.12 in 10.0 mi NW 10.4 mph - N/A   Clear
3:13 AM 51.8 °F - 48.2 °F 88% 30.13 in 10.0 mi NNW 9.2 mph - N/A   Clear
3:21 AM 51.8 °F - 48.2 °F 88% 30.13 in 10.0 mi North 9.2 mph - N/A   Clear
3:41 AM 51.8 °F - 46.4 °F 82% 30.14 in 10.0 mi North 10.4 mph - N/A   Clear
4:01 AM 51.8 °F - 46.4 °F 82% 30.13 in 10.0 mi North 6.9 mph - N/A   Clear
4:36 AM 51.8 °F - 46.4 °F 82% 30.14 in 10.0 mi NW 5.8 mph - N/A   Clear
4:54 AM 51.8 °F - 46.4 °F 82% 30.14 in 10.0 mi NW 5.8 mph - N/A   Clear
5:13 AM 51.8 °F - 48.2 °F 88% 30.14 in 10.0 mi NW 5.8 mph - N/A   Clear
5:34 AM 50.0 °F - 48.2 °F 94% 30.15 in 10.0 mi NNW 5.8 mph - N/A   Clear
5:53 AM 50.0 °F - 48.2 °F 94% 30.15 in 10.0 mi WNW 6.9 mph - N/A   Clear
6:14 AM 48.2 °F - 46.4 °F 93% 30.15 in 10.0 mi WNW 5.8 mph - N/A   Clear
6:33 AM 48.2 °F - 46.4 °F 93% 30.16 in 10.0 mi WNW 6.9 mph - N/A   Clear
6:54 AM 46.4 °F 43.5 °F 44.6 °F 93% 30.17 in 5.0 mi WNW 5.8 mph - N/A   Clear
7:53 AM 46.4 °F 43.5 °F 44.6 °F 93% 30.18 in 0.2 mi NW 5.8 mph - N/A Fog Fog
8:12 AM 46.4 °F 44.3 °F 44.6 °F 93% 30.18 in 0.8 mi NW 4.6 mph - N/A   Overcast
8:21 AM 46.4 °F 44.3 °F 46.4 °F 100% 30.18 in 2.0 mi NW 4.6 mph - N/A   Mostly Cloudy
8:41 AM 48.2 °F - 46.4 °F 93% 30.17 in 10.0 mi NW 3.5 mph - N/A   Clear
9:14 AM 50.0 °F - 48.2 °F 94% 30.17 in 10.0 mi Calm Calm - N/A   Clear
9:34 AM 51.8 °F - 48.2 °F 88% 30.17 in 10.0 mi Calm Calm - N/A   Clear
9:53 AM 53.6 °F - 48.2 °F 82% 30.16 in 10.0 mi Calm Calm - N/A   Clear
10:13 AM 53.6 °F - 48.2 °F 82% 30.17 in 10.0 mi Calm Calm - N/A   Clear
10:33 AM 55.4 °F - 48.2 °F 77% 30.16 in 10.0 mi SE 3.5 mph - N/A   Clear
10:53 AM 57.2 °F - 46.4 °F 67% 30.16 in 10.0 mi Calm Calm - N/A   Clear
11:13 AM 57.2 °F - 46.4 °F 67% 30.16 in 10.0 mi Calm Calm - N/A   Clear
11:34 AM 57.2 °F - 46.4 °F 67% 30.16 in 10.0 mi SSE 4.6 mph - N/A   Clear
11:53 AM 57.2 °F - 46.4 °F 67% 30.16 in 10.0 mi SE 4.6 mph - N/A   Clear
12:13 PM 57.2 °F - 46.4 °F 67% 30.15 in 10.0 mi SSE 5.8 mph - N/A   Clear
12:34 PM 57.2 °F - 46.4 °F 67% 30.15 in 10.0 mi SSE 5.8 mph - N/A   Clear
12:53 PM 59.0 °F - 46.4 °F 63% 30.15 in 10.0 mi SSE 8.1 mph - N/A   Clear
1:13 PM 57.2 °F - 46.4 °F 67% 30.14 in 10.0 mi SSE 8.1 mph - N/A   Clear
1:34 PM 59.0 °F - 46.4 °F 63% 30.13 in 10.0 mi SSE 9.2 mph - N/A   Clear
1:53 PM 59.0 °F - 46.4 °F 63% 30.12 in 10.0 mi SSE 11.5 mph 16.1 mph N/A   Clear
2:13 PM 59.0 °F - 48.2 °F 67% 30.11 in 10.0 mi SSE 12.7 mph - N/A   Clear
2:34 PM 60.8 °F - 48.2 °F 63% 30.10 in 10.0 mi SSE 13.8 mph - N/A   Clear
2:53 PM 60.8 °F - 48.2 °F 63% 30.09 in 10.0 mi SSE 13.8 mph - N/A   Clear
3:13 PM 62.6 °F - 50.0 °F 63% 30.09 in 10.0 mi SSE 12.7 mph - N/A   Clear
3:34 PM 62.6 °F - 48.2 °F 59% 30.07 in 10.0 mi South 12.7 mph - N/A   Clear
3:53 PM 62.6 °F - 48.2 °F 59% 30.06 in 10.0 mi SSE 11.5 mph - N/A   Clear
4:13 PM 64.4 °F - 48.2 °F 56% 30.06 in 10.0 mi South 11.5 mph - N/A   Clear
4:34 PM 62.6 °F - 48.2 °F 59% 30.05 in 10.0 mi South 9.2 mph - N/A   Clear
4:53 PM 62.6 °F - 48.2 °F 59% 30.05 in 10.0 mi SSE 12.7 mph - N/A   Clear
5:13 PM 62.6 °F - 48.2 °F 59% 30.04 in 10.0 mi SSE 11.5 mph - N/A   Clear
5:34 PM 62.6 °F - 48.2 °F 59% 30.03 in 10.0 mi SSE 9.2 mph - N/A   Clear
5:53 PM 62.6 °F - 48.2 °F 59% 30.02 in 10.0 mi SSE 8.1 mph - N/A   Clear
6:13 PM 62.6 °F - 48.2 °F 59% 30.02 in 10.0 mi SSE 9.2 mph - N/A   Clear
6:34 PM 64.4 °F - 51.8 °F 64% 30.01 in 10.0 mi South 5.8 mph - N/A   Clear
6:53 PM 64.4 °F - 51.8 °F 64% 30.00 in 10.0 mi SSE 10.4 mph - N/A   Clear
7:13 PM 64.4 °F - 50.0 °F 59% 29.99 in 10.0 mi SSE 11.5 mph - N/A   Clear
7:34 PM 64.4 °F - 48.2 °F 56% 29.99 in 10.0 mi SSE 10.4 mph - N/A   Clear
7:53 PM 64.4 °F - 48.2 °F 56% 29.98 in 10.0 mi SSE 9.2 mph - N/A   Clear
8:13 PM 64.4 °F - 50.0 °F 59% 29.98 in 10.0 mi SSE 8.1 mph - N/A   Clear
8:34 PM 64.4 °F - 50.0 °F 59% 29.97 in 10.0 mi SSE 10.4 mph - N/A   Clear
8:53 PM 64.4 °F - 51.8 °F 64% 29.97 in 10.0 mi SSE 11.5 mph - N/A   Clear
9:13 PM 62.6 °F - 53.6 °F 72% 29.96 in 10.0 mi SSE 16.1 mph - N/A   Clear
9:34 PM 64.4 °F - 53.6 °F 68% 29.97 in 10.0 mi South 16.1 mph - N/A   Clear
9:53 PM 64.4 °F - 53.6 °F 68% 29.96 in 10.0 mi South 15.0 mph - N/A   Clear
10:13 PM 64.4 °F - 53.6 °F 68% 29.96 in 10.0 mi South 12.7 mph - N/A   Clear
10:34 PM 64.4 °F - 53.6 °F 68% 29.96 in 10.0 mi South 13.8 mph 17.3 mph N/A   Clear
10:53 PM 62.6 °F - 53.6 °F 72% 29.96 in 10.0 mi South 12.7 mph - N/A   Clear
11:13 PM 62.6 °F - 53.6 °F 72% 29.96 in 10.0 mi South 16.1 mph - N/A   Clear
11:33 PM 62.6 °F - 53.6 °F 72% 29.95 in 10.0 mi South 16.1 mph 21.9 mph N/A   Clear
11:53 PM 62.6 °F - 53.6 °F 72% 29.94 in 10.0 mi South 18.4 mph 23.0 mph N/A   Clear